SCP
0 0 0 0 0 0 0 0 0 0 0 0 0 0 0 0 0 0 0 0 0 0 0 0 0 0 0 0 0 0 0 0 0 0 0 0 0 0 0 0 0 0 0 0
0 0 0 0 0 0 0 0 0 0 0 0 0 0 0 0 0 0 0 0 0 0 0 0 0 0 0 0 0 0 0 0 0 0 0 0 0 0 0 0 0 0 0 0
0 0 0 0 0 0 0 0 0 0 0 0 0 0 0 0 0 0 0 0 0 0 0 0 0 0 0 0 0 0 0 0 0 0 0 0 0 0 0 0 0 0 0 0
0 0 0 0 0 0 0 0 0 0 0 0 0 0 0 0 0 0 0 0 0 0 0 0 0 0 0 0 0 0 0 0 0 0 0 0 0 0 0 0 0 0 0 0
0 0 0 0 0 0 0 0 0 0 0 0 0 0 0 0 0 0 0 0 0 0 0 0 0 0 0 0 0 0 0 0 0 0 0 0 0 0 0 0 0 0 0 0
0 0 0 0 0 0 0 0 0 0 0 0 0 0 0 0 0 0 0 0 0 0 0 0 0 0 0 0 0 0 0 0 0 0 0 0 0 0 0 0 0 0 0 0
0 0 0 0 0 0 0 0 0 0 0 0 0 0 0 0 0 0 0 0 0 0 0 0 0 0 0 0 0 0 0 0 0 0 0 0 0 0 0 0 0 0 0 0
0 0 0 0 0 0 0 0 0 0 0 0 0 0 0 0 0 0 0 0 0 0 0 0 0 0 0 0 0 0 0 0 0 0 0 0 0 0 0 0 0 0 0 0
0 0 0 0 0 0 0 0 0 0 0 0 0 0 0 0 0 0 0 0 0 0 0 0 0 0 0 0 0 0 0 0 0 0 0 0 0 0 0 0 0 0 0 0
0 0 0 0 0 0 0 0 0 0 0 0 0 0 0 0 0 0 0 0 0 0 0 0 0 0 0 0 0 0 0 0 0 0 0 0 0 0 0 0 0 0 0 0
0 0 0 0 0 0 0 0 0 0 0 0 0 0 0 0 0 0 0 0 0 0 0 0 0 0 0 0 0 0 0 0 0 0 0 0 0 0 0 0 0 0 0 0
0 0 0 0 0 0 0 0 0 0 0 0 0 0 0 0 0 0 0 0 0 0 0 0 0 0 0 0 0 0 0 0 0 0 0 0 0 0 0 0 0 0 0 0
0 0 0 0 0 0 0 0 0 0 0 0 0 0 0 0 0 0 0 0 0 0 0 0 0 0 0 0 0 0 0 0 0 0 0 0 0 0 0 0 0 0 0 0
0 0 0 0 0 0 0 0 0 0 0 0 0 0 0 0 0 0 0 0 0 0 0 0 0 0 0 0 0 0 0 0 0 0 0 0 0 0 0 0 0 0 0 0
0 0 0 0 0 0 0 0 0 0 0 0 0 0 0 0 0 0 0 0 0 0 0 0 0 0 0 0 0 0 0 0 0 0 0 0 0 0 0 0 0 0 0 0
0 0 0 0 0 0 0 0 0 0 0 0 0 0 0 0 0 0 0 0 0 0 0 0 0 0 0 0 0 0 0 0 0 0 0 0 0 0 0 0 0 0 0 0
0 0 0 0 0 0 0 0 0 0 0 0 0 0 0 0 0 0 0 0 0 0 0 0 0 0 0 0 0 0 0 0 0 0 0 0 0 0 0 0 0 0 0 0
0 0 0 0 0 0 0 0 0 0 0 0 0 0 0 0 0 0 0 0 0 0 0 0 0 0 0 0 0 0 0 0 0 0 0 0 0 0 0 0 0 0 0 0
0 0 0 0 0 0 0 0 0 0 0 0 0 0 0 0 0 0 0 0 0 0 0 0 0 0 0 0 0 0 0 0 0 0 0 0 0 0 0 0 0 0 0 0
0 0 0 0 0 0 0 0 0 0 0 0 0 0 0 0 0 0 0 0 0 0 0 0 0 0 0 0 0 0 0 0 0 0 0 0 0 0 0 0 0 0 0 0
0 0 0 0 0 0 0 0 0 0 0 0 0 0 0 0 0 0 0 0 0 0 0 0 0 0 0 0 0 0 0 0 0 0 0 0 0 0 0 0 0 0 0 0
0 0 0 0 0 0 0 0 0 0 0 0 0 0 0 0 0 0 0 0 0 0 0 0 0 0 0 0 0 0 0 0 0 0 0 0 0 0 0 0 0 0 0 0
0 0 0 0 0 0 0 0 0 0 0 0 0 0 0 0 0 0 0 0 0 0 0 0 0 0 0 0 0 0 0 0 0 0 0 0 0 0 0 0 0 0 0 0
0 0 0 0 0 0 0 0 0 0 0 0 0 0 0 0 0 0 0 0 0 0 0 0 0 0 0 0 0 0 0 0 0 0 0 0 0 0 0 0 0 0 0 0
0 0 0 0 0 0 0 0 0 0 0 0 0 0 0 0 0 0 0 0 0 0 0 0 0 0 0 0 0 0 0 0 0 0 0 0 0 0 0 0 0 0 0 0
0 0 0 0 0 0 0 0 0 0 0 0 0 0 0 0 0 0 0 0 0 0 0 0 0 0 0 0 0 0 0 0 0 0 0 0 0 0 0 0 0 0 0 0
Wind_Speed
6 8 7 5 3 2 2 4 3 2 2 5 7 7 5 7 8 8 7 6 5 4 4 4 5 6 7 8 9 9 9 9 8 7 7 7 7 6 6 5 6 6 6 6
9 6 4 5 4 3 2 3 2 3 1 5 6 8 5 6 8 8 8 7 5 5 5 4 6 6 7 8 9 9 9 9 9 7 7 6 7 6 6 5 6 6 6 6
8 7 6 6 6 4 1 2 1 1 3 4 6 6 5 5 7 7 8 7 6 5 7 6 7 7 7 8 9 8 9 9 8 8 6 6 5 5 5 6 6 6 7 6
8 6 7 6 4 1 2 2 1 2 5 1 3 4 3 2 5 7 8 7 6 4 5 5 6 7 7 8 8 8 8 9 8 8 7 9 7 7 7 6 6 7 6 6
7 6 6 4 4 1 4 3 2 3 5 5 4 6 2 2 2 2 3 5 5 4 4 5 5 6 7 7 7 7 8 8 8 8 7 8 7 7 7 7 7 7 6 6
8 4 3 4 5 3 6 5 4 4 6 5 1 5 1 1 2 2 0 2 3 3 3 4 4 5 5 6 5 6 6 7 7 7 7 8 9 9 9 9 8 7 6 5
8 6 4 3 5 5 6 6 4 6 5 1 2 5 3 3 2 4 3 2 2 3 4 4 4 5 5 6 6 6 6 6 7 7 7 7 8 8 8 9 8 8 6 6
9 7 5 2 2 2 2 5 5 4 2 1 4 5 1 2 2 3 4 4 3 4 4 4 4 5 5 5 5 6 6 6 6 7 7 7 7 6 6 8 8 7 6 7
5 7 5 3 1 2 3 1 4 5 2 4 2 2 2 2 3 4 4 5 5 4 4 4 4 5 5 5 5 5 6 6 6 6 7 7 7 7 8 8 8 7 7 7
3 6 6 5 5 4 4 2 4 5 4 3 1 2 1 0 2 2 3 4 4 4 4 4 4 5 5 5 5 5 5 6 6 6 6 6 7 7 7 8 8 9 9 8
3 6 7 7 5 3 5 4 3 3 4 5 2 2 3 3 4 5 4 4 4 4 4 4 4 4 5 5 5 5 5 5 5 6 6 7 7 7 8 7 8 8 8 9
0 4 5 4 3 2 3 3 5 4 2 3 4 1 4 3 5 6 7 5 4 4 5 5 5 5 5 5 5 5 5 5 5 5 6 6 6 7 7 8 8 9 8 8
5 5 6 7 6 6 5 3 4 4 3 3 4 2 4 3 5 5 6 6 5 5 5 5 5 5 5 5 5 5 5 4 4 4 6 6 6 7 8 8 8 9 9 8
4 6 5 2 3 6 6 7 7 7 4 4 5 6 6 7 6 5 4 5 5 5 6 6 5 5 5 5 5 5 4 3 4 4 5 6 7 7 7 8 8 8 9 9
6 5 3 2 2 3 5 7 10 10 6 6 5 8 10 8 7 6 5 4 5 6 6 6 6 5 5 5 5 4 4 3 3 4 4 5 6 6 7 7 8 8 8 8
6 5 6 5 3 5 6 8 10 10 8 8 9 8 4 5 5 5 4 4 5 5 5 5 6 6 6 5 5 4 4 3 3 4 4 5 5 6 6 7 7 8 7 8
7 7 6 6 5 5 8 9 11 7 7 6 5 3 6 7 6 5 4 4 5 5 4 5 5 5 5 5 4 4 4 3 4 4 4 4 5 6 6 7 7 7 7 7
7 7 4 4 6 8 4 4 5 5 4 7 7 7 7 7 7 6 5 5 5 4 4 5 5 5 5 5 4 4 4 4 5 5 4 4 5 5 6 6 7 7 7 7
4 5 5 5 6 4 4 5 6 6 4 3 4 4 4 4 5 2 2 3 5 4 4 4 4 4 5 4 5 5 5 5 5 5 5 4 5 5 6 6 7 6 7 7
3 5 6 6 6 6 6 7 3 5 5 3 2 3 3 4 3 4 6 5 4 3 3 4 4 5 5 5 4 6 6 6 5 5 5 5 5 5 6 6 7 6 6 6
8 7 8 8 6 4 6 4 5 7 3 4 1 2 3 4 5 6 6 5 4 3 3 3 4 5 5 4 5 7 7 7 5 5 5 6 6 6 6 6 6 6 6 6
9 8 8 7 8 5 7 8 7 2 4 1 1 2 3 4 4 5 5 5 4 4 3 3 4 4 4 4 6 8 8 7 5 5 7 7 7 6 5 6 6 6 6 6
8 6 4 6 1 5 3 2 2 2 2 1 2 2 3 2 3 4 4 5 5 5 4 4 4 5 4 4 6 8 8 7 6 7 8 8 8 7 7 7 6 6 5 5
7 4 5 6 5 4 4 3 2 1 1 1 1 1 1 2 3 4 5 6 6 6 6 5 5 5 6 5 5 7 8 7 8 9 9 8 8 8 7 6 6 6 5 5
6 9 7 7 5 6 6 6 5 4 4 4 4 4 4 4 5 6 6 7 7 7 7 6 6 6 8 8 7 7 8 8 9 10 9 9 9 8 8 7 6 7 6 5
9 10 10 8 11 10 9 10 8 7 6 5 6 7 7 6 6 7 7 7 8 8 8 8 8 8 9 9 9 9 9 9 9 9 9 7 7 7 7 7 7 9 10 8
Wind_Direction
173 196 195 186 215 321 302 279 286 80 120 242 256 268 233 207 221 233 239 252 281 312 328 341 335 336 335 341 343 346 345 346 343 340 335 334 333 326 324 320 317 307 298 289
175 174 114 112 131 157 199 253 246 139 136 265 277 274 255 222 231 245 259 266 281 304 315 335 333 341 340 342 344 343 347 348 347 342 330 324 321 317 322 319 318 313 303 296
186 118 134 148 150 161 150 294 289 209 175 216 283 256 206 206 227 239 249 262 280 296 312 330 336 337 340 345 344 341 344 345 349 343 336 331 327 315 328 332 326 319 310 300
106 120 151 149 119 277 144 89 172 212 252 234 294 294 150 182 232 237 243 249 261 277 296 318 325 333 340 345 341 338 346 347 350 344 345 343 338 336 333 328 324 318 313 304
114 136 155 134 87 348 88 114 181 244 265 264 220 272 137 160 260 246 241 247 256 267 293 312 324 330 334 341 339 337 344 347 350 346 344 335 340 336 331 331 331 325 321 314
103 98 59 91 90 89 138 162 163 211 242 243 157 275 284 109 338 344 268 244 246 256 281 298 314 318 330 339 338 336 339 346 346 342 341 343 341 338 337 339 337 330 324 318
130 117 105 140 150 150 210 239 225 209 212 178 97 266 290 34 324 292 293 291 258 260 283 298 312 319 329 334 336 331 336 341 344 341 343 345 345 338 337 336 335 331 328 324
170 150 130 156 267 192 209 273 290 296 305 120 187 253 25 47 297 271 263 263 261 265 279 293 304 309 312 320 327 328 332 336 339 338 342 343 343 336 338 338 334 331 326 323
188 127 114 89 79 257 195 215 342 295 281 266 201 249 249 178 241 241 248 250 256 264 273 281 292 298 302 308 319 320 321 328 335 335 336 338 341 341 339 337 336 333 327 323
156 138 146 140 154 63 353 128 212 253 275 261 214 229 3 358 336 301 265 262 263 257 263 272 282 288 292 299 305 306 308 318 326 329 333 333 334 336 335 334 338 336 332 330
199 164 153 183 218 184 170 190 228 255 289 296 307 104 65 334 325 310 300 281 264 255 259 271 282 287 285 284 287 295 302 311 322 327 330 329 333 334 333 337 339 335 334 332
138 227 170 156 95 353 259 243 230 261 215 266 288 90 117 273 296 291 286 275 253 248 253 263 274 281 278 282 292 297 305 313 320 323 325 328 330 333 334 340 339 337 338 336
162 207 178 165 174 186 206 201 225 258 253 239 262 86 122 281 299 291 275 268 248 239 243 254 262 272 279 283 290 293 300 307 315 318 322 327 334 339 339 340 339 338 339 338
230 221 250 279 100 157 182 186 201 221 243 246 251 299 323 329 329 325 297 266 248 240 242 252 262 267 270 276 283 290 299 297 303 312 320 330 338 339 336 340 339 339 342 341
235 220 193 115 105 188 202 194 199 223 254 275 302 301 309 327 327 318 303 272 248 242 242 248 257 269 269 270 277 284 291 286 293 306 319 332 334 334 332 335 335 339 342 340
221 208 183 179 185 217 231 217 211 229 248 259 278 287 306 320 307 297 288 264 254 249 247 251 255 262 267 270 280 291 285 279 284 301 320 330 323 329 329 331 334 338 339 340
191 202 208 194 166 216 231 210 201 206 214 234 258 325 337 315 316 314 314 285 267 263 256 254 257 263 268 276 289 291 292 285 278 292 306 314 318 323 328 331 332 332 333 339
196 200 219 202 190 227 98 101 178 199 215 228 259 292 307 307 306 295 293 292 281 267 257 252 256 260 260 260 265 274 267 266 277 289 296 304 309 315 321 326 329 329 332 335
256 205 214 223 219 214 161 167 180 196 175 195 245 287 319 318 272 177 44 318 295 285 271 266 268 266 265 266 271 268 263 262 270 279 286 295 301 309 314 320 324 331 329 326
188 229 229 218 230 220 152 130 165 222 186 142 233 301 328 299 293 51 22 348 324 304 280 270 261 256 259 261 261 265 271 269 270 271 275 283 292 298 303 312 318 321 318 317
186 200 220 224 234 224 117 138 182 211 137 113 240 304 307 309 351 357 346 342 332 322 305 281 265 261 268 271 260 264 274 276 278 270 267 268 271 278 290 299 304 306 311 314
196 192 202 208 222 202 131 175 202 59 67 96 298 316 314 319 337 341 343 352 356 346 337 306 283 278 276 270 264 270 277 282 277 262 257 260 264 269 275 279 289 298 305 304
215 219 208 215 208 79 150 213 17 321 269 332 326 335 313 324 5 10 10 8 7 359 350 330 307 301 297 282 273 279 288 288 272 261 258 261 263 260 263 270 277 286 291 295
185 189 205 208 199 172 168 180 181 215 210 53 20 22 27 41 33 31 27 20 14 8 1 349 334 323 322 320 303 294 300 292 275 267 265 263 262 263 261 258 266 274 285 290
176 181 206 216 166 171 196 192 172 152 139 120 98 78 64 63 51 41 37 28 18 12 7 2 354 343 336 334 330 325 317 304 287 278 271 267 263 264 267 260 254 261 266 271
184 192 199 214 186 186 175 162 163 153 139 127 117 95 72 62 57 52 47 34 26 21 15 13 8 357 350 349 349 346 337 319 302 294 290 282 274 265 261 265 258 229 236 242